Time,TemperatureF,DewpointF,PressureIn,WindDirection,WindDirectionDegrees,WindSpeedMPH,WindSpeedGustMPH,Humidity,HourlyPrecipIn,Conditions,Clouds,dailyrainin,SoftwareType,DateUTC
2013-09-21 00:13:00,59.7,-41.0,29.96,NNE,22,0.0,-999.0,1,-99.99,,,0.00,Acu-Link.com,2013-09-21 04:13:00,
2013-09-21 00:29:00,60.1,-40.8,29.95,NNE,22,0.0,-999.0,1,-99.99,,,0.00,Acu-Link.com,2013-09-21 04:29:00,
2013-09-21 00:44:00,60.4,-40.6,29.95,NNE,22,0.0,-999.0,1,-99.99,,,0.00,Acu-Link.com,2013-09-21 04:44:00,
2013-09-21 00:59:00,60.1,-40.8,29.95,NNE,22,0.0,-999.0,1,-99.99,,,0.00,Acu-Link.com,2013-09-21 04:59:00,
2013-09-21 01:15:00,60.4,-40.6,29.94,NNE,22,0.0,-999.0,1,-99.99,,,0.00,Acu-Link.com,2013-09-21 05:15:00,
2013-09-21 01:30:00,60.3,-40.7,29.93,NNE,22,0.0,-999.0,1,-99.99,,,0.00,Acu-Link.com,2013-09-21 05:30:00,
2013-09-21 01:45:00,60.3,-40.7,29.92,NNE,22,0.0,-999.0,1,-99.99,,,0.00,Acu-Link.com,2013-09-21 05:45:00,
2013-09-21 02:00:00,59.9,-40.9,29.92,NNE,22,0.0,-999.0,1,-99.99,,,0.00,Acu-Link.com,2013-09-21 06:00:00,
2013-09-21 02:16:00,59.7,-41.0,29.91,NNE,22,0.0,-999.0,1,-99.99,,,0.00,Acu-Link.com,2013-09-21 06:16:00,
2013-09-21 02:31:00,59.5,-41.2,29.91,NNE,22,0.0,-999.0,1,-99.99,,,0.00,Acu-Link.com,2013-09-21 06:31:00,
2013-09-21 02:46:00,59.9,-40.9,29.90,NNE,22,0.0,-999.0,1,-99.99,,,0.00,Acu-Link.com,2013-09-21 06:46:00,
2013-09-21 03:02:00,60.1,-40.8,29.90,NNE,22,0.0,-999.0,1,-99.99,,,0.00,Acu-Link.com,2013-09-21 07:02:00,
2013-09-21 03:17:00,59.9,-40.9,29.90,NNE,22,0.0,-999.0,1,-99.99,,,0.00,Acu-Link.com,2013-09-21 07:17:00,
2013-09-21 03:32:00,60.1,-40.8,29.90,NNE,22,0.0,-999.0,1,-99.99,,,0.00,Acu-Link.com,2013-09-21 07:32:00,
2013-09-21 03:48:00,59.9,-40.9,29.89,NNE,22,0.0,-999.0,1,-99.99,,,0.00,Acu-Link.com,2013-09-21 07:48:00,
2013-09-21 04:03:00,60.1,-40.8,29.90,NNE,22,0.0,-999.0,1,-99.99,,,0.00,Acu-Link.com,2013-09-21 08:03:00,
2013-09-21 04:19:00,60.1,-40.8,29.89,NNE,22,0.0,-999.0,1,-99.99,,,0.00,Acu-Link.com,2013-09-21 08:19:00,
2013-09-21 04:34:00,60.3,-40.7,29.89,NNE,22,0.0,-999.0,1,-99.99,,,0.00,Acu-Link.com,2013-09-21 08:34:00,
2013-09-21 04:49:00,60.1,-40.8,29.89,NNE,22,0.0,-999.0,1,-99.99,,,0.00,Acu-Link.com,2013-09-21 08:49:00,
2013-09-21 05:04:00,60.6,-40.5,29.88,NNE,22,0.0,-999.0,1,-99.99,,,0.00,Acu-Link.com,2013-09-21 09:04:00,
2013-09-21 05:19:00,60.1,-40.8,29.88,NNE,22,1.7,-999.0,1,-99.99,,,0.00,Acu-Link.com,2013-09-21 09:19:00,
2013-09-21 05:35:00,60.1,-40.8,29.89,NNE,22,0.0,-999.0,1,-99.99,,,0.00,Acu-Link.com,2013-09-21 09:35:00,
2013-09-21 05:50:00,60.6,-40.5,29.88,NNE,22,0.0,-999.0,1,-99.99,,,0.00,Acu-Link.com,2013-09-21 09:50:00,
2013-09-21 06:05:00,60.6,-40.5,29.88,NNE,22,1.1,-999.0,1,-99.99,,,0.00,Acu-Link.com,2013-09-21 10:05:00,
2013-09-21 06:20:00,60.8,-40.4,29.88,NNE,22,0.0,-999.0,1,-99.99,,,0.00,Acu-Link.com,2013-09-21 10:20:00,
2013-09-21 06:35:00,60.8,-40.4,29.88,NNE,22,0.0,-999.0,1,-99.99,,,0.00,Acu-Link.com,2013-09-21 10:35:00,
2013-09-21 06:51:00,61.0,-40.2,29.89,NNE,22,0.0,-999.0,1,-99.99,,,0.00,Acu-Link.com,2013-09-21 10:51:00,
2013-09-21 07:06:00,61.2,-40.1,29.89,NNE,22,0.0,-999.0,1,-99.99,,,0.00,Acu-Link.com,2013-09-21 11:06:00,
2013-09-21 07:21:00,62.2,-39.5,29.89,NNE,22,4.2,-999.0,1,-99.99,,,0.00,Acu-Link.com,2013-09-21 11:21:00,
2013-09-21 07:36:00,62.6,-39.3,29.89,NNE,22,1.7,-999.0,1,-99.99,,,0.00,Acu-Link.com,2013-09-21 11:36:00,
2013-09-21 07:51:00,63.5,-38.7,29.89,NNE,22,1.1,-999.0,1,-99.99,,,0.00,Acu-Link.com,2013-09-21 11:51:00,
2013-09-21 08:07:00,63.7,-38.6,29.88,NNE,22,2.2,-999.0,1,-99.99,,,0.00,Acu-Link.com,2013-09-21 12:07:00,
2013-09-21 08:22:00,66.0,-37.2,29.88,NNE,22,3.2,-999.0,1,-99.99,,,0.00,Acu-Link.com,2013-09-21 12:22:00,
2013-09-21 08:37:00,68.5,-35.7,29.87,NNE,22,3.2,-999.0,1,-99.99,,,0.00,Acu-Link.com,2013-09-21 12:37:00,
2013-09-21 08:52:00,69.3,-35.2,29.86,NNE,22,2.2,-999.0,1,-99.99,,,0.00,Acu-Link.com,2013-09-21 12:52:00,
2013-09-21 09:07:00,69.6,-35.1,29.86,NNE,22,2.7,-999.0,1,-99.99,,,0.00,Acu-Link.com,2013-09-21 13:07:00,
2013-09-21 09:22:00,70.2,-34.7,29.86,NNE,22,3.2,-999.0,1,-99.99,,,0.00,Acu-Link.com,2013-09-21 13:22:00,
2013-09-21 09:38:00,71.8,67.4,29.85,NNE,22,3.2,-999.0,86,-99.99,,,0.00,Acu-Link.com,2013-09-21 13:38:00,
2013-09-21 09:55:00,72.0,1.3,29.85,NNE,22,3.7,-999.0,6,-99.99,,,0.00,Acu-Link.com,2013-09-21 13:55:00,
2013-09-21 10:12:00,74.1,-32.4,29.84,NE,45,2.7,-999.0,1,-99.99,,,0.00,Acu-Link.com,2013-09-21 14:12:00,
2013-09-21 10:27:00,73.6,-32.7,29.83,NE,45,3.2,-999.0,1,-99.99,,,0.00,Acu-Link.com,2013-09-21 14:27:00,
2013-09-21 10:42:00,74.1,-32.4,29.83,NE,45,4.2,-999.0,1,-99.99,,,0.00,Acu-Link.com,2013-09-21 14:42:00,
2013-09-21 10:57:00,74.7,-32.0,29.83,SSE,157,4.7,-999.0,1,-99.99,,,0.00,Acu-Link.com,2013-09-21 14:57:00,
2013-09-21 11:12:00,74.5,44.3,29.82,ESE,112,4.7,-999.0,34,-99.99,,,0.00,Acu-Link.com,2013-09-21 15:12:00,
2013-09-21 11:28:00,75.4,-31.6,29.82,SSW,202,5.8,-999.0,1,-99.99,,,0.00,Acu-Link.com,2013-09-21 15:28:00,
2013-09-21 11:43:00,75.2,-31.7,29.81,SE,135,5.8,-999.0,1,-99.99,,,0.00,Acu-Link.com,2013-09-21 15:43:00,
2013-09-21 11:59:00,74.7,-32.0,29.80,SE,135,5.8,-999.0,1,-99.99,,,0.00,Acu-Link.com,2013-09-21 15:59:00,
2013-09-21 12:14:00,75.9,-31.3,29.80,ESE,112,5.3,-999.0,1,-99.99,,,0.00,Acu-Link.com,2013-09-21 16:14:00,
2013-09-21 12:29:00,77.5,-30.3,29.79,East,90,4.2,-999.0,1,-99.99,,,0.00,Acu-Link.com,2013-09-21 16:29:00,
2013-09-21 12:44:00,77.7,-30.2,29.79,ESE,112,5.8,-999.0,1,-99.99,,,0.00,Acu-Link.com,2013-09-21 16:44:00,
2013-09-21 12:59:00,77.0,-30.6,29.79,SW,225,7.8,-999.0,1,-99.99,,,0.00,Acu-Link.com,2013-09-21 16:59:00,
2013-09-21 13:14:00,77.5,-30.3,29.77,SSW,202,5.8,-999.0,1,-99.99,,,0.00,Acu-Link.com,2013-09-21 17:14:00,
2013-09-21 13:30:00,77.5,-30.3,29.77,SSW,202,5.8,-999.0,1,-99.99,,,0.00,Acu-Link.com,2013-09-21 17:30:00,
2013-09-21 13:45:00,77.5,-30.3,29.75,SSW,202,5.3,-999.0,1,-99.99,,,0.00,Acu-Link.com,2013-09-21 17:45:00,
2013-09-21 14:01:00,77.4,-30.4,29.74,SSE,157,4.7,-999.0,1,-99.99,,,0.00,Acu-Link.com,2013-09-21 18:01:00,
2013-09-21 14:16:00,77.2,-30.5,29.73,South,180,5.8,-999.0,1,-99.99,,,0.00,Acu-Link.com,2013-09-21 18:16:00,
2013-09-21 14:31:00,77.9,-30.1,29.72,SSE,157,7.3,-999.0,1,-99.99,,,0.00,Acu-Link.com,2013-09-21 18:31:00,
2013-09-21 14:46:00,77.9,-30.1,29.72,West,270,6.3,-999.0,1,-99.99,,,0.00,Acu-Link.com,2013-09-21 18:46:00,
2013-09-21 15:01:00,75.9,72.4,29.72,NE,45,10.4,-999.0,89,-99.99,,,0.00,Acu-Link.com,2013-09-21 19:01:00,
2013-09-21 15:16:00,76.3,-31.0,29.71,ESE,112,5.8,-999.0,1,-99.99,,,0.00,Acu-Link.com,2013-09-21 19:16:00,
2013-09-21 15:31:00,77.2,-30.5,29.70,ESE,112,7.8,-999.0,1,-99.99,,,0.00,Acu-Link.com,2013-09-21 19:31:00,
2013-09-21 15:47:00,77.4,-30.4,29.69,East,90,5.8,-999.0,1,-99.99,,,0.00,Acu-Link.com,2013-09-21 19:47:00,
2013-09-21 16:02:00,77.4,57.3,29.68,South,180,6.8,-999.0,50,-99.99,,,0.00,Acu-Link.com,2013-09-21 20:02:00,
2013-09-21 16:17:00,76.3,-18.1,29.69,South,180,5.8,-999.0,2,-99.99,,,0.00,Acu-Link.com,2013-09-21 20:17:00,
2013-09-21 16:32:00,75.6,-31.5,29.68,ESE,112,5.3,-999.0,1,-99.99,,,0.00,Acu-Link.com,2013-09-21 20:32:00,
2013-09-21 16:47:00,75.6,-31.5,29.67,ESE,112,5.3,-999.0,1,-99.99,,,0.00,Acu-Link.com,2013-09-21 20:47:00,
2013-09-21 17:03:00,75.0,-31.8,29.67,East,90,7.3,-999.0,1,-99.99,,,0.00,Acu-Link.com,2013-09-21 21:03:00,
2013-09-21 17:18:00,74.8,-31.9,29.67,East,90,4.7,-999.0,1,-99.99,,,0.00,Acu-Link.com,2013-09-21 21:18:00,
2013-09-21 17:33:00,74.7,-32.0,29.67,ESE,112,4.7,-999.0,1,-99.99,,,0.00,Acu-Link.com,2013-09-21 21:33:00,
2013-09-21 17:49:00,74.3,-32.2,29.67,South,180,3.7,-999.0,1,-99.99,,,0.00,Acu-Link.com,2013-09-21 21:49:00,
2013-09-21 18:04:00,73.9,-32.5,29.66,SSW,202,10.4,-999.0,1,-99.99,,,0.00,Acu-Link.com,2013-09-21 22:04:00,
2013-09-21 18:19:00,73.8,-32.5,29.66,ESE,112,4.2,-999.0,1,-99.99,,,0.00,Acu-Link.com,2013-09-21 22:19:00,
2013-09-21 18:34:00,73.4,-32.8,29.65,ESE,112,3.2,-999.0,1,-99.99,,,0.00,Acu-Link.com,2013-09-21 22:34:00,
2013-09-21 18:49:00,73.2,-32.9,29.66,East,90,5.8,-999.0,1,-99.99,,,0.00,Acu-Link.com,2013-09-21 22:49:00,
2013-09-21 19:04:00,73.2,-32.9,29.65,ENE,67,3.7,-999.0,1,-99.99,,,0.00,Acu-Link.com,2013-09-21 23:04:00,
2013-09-21 19:19:00,73.2,-32.9,29.65,SW,225,3.2,-999.0,1,-99.99,,,0.00,Acu-Link.com,2013-09-21 23:19:00,
2013-09-21 19:35:00,73.2,-32.9,29.65,SW,225,2.7,-999.0,1,-99.99,,,0.00,Acu-Link.com,2013-09-21 23:35:00,
2013-09-21 19:50:00,73.2,-32.9,29.65,SW,225,3.2,-999.0,1,-99.99,,,0.00,Acu-Link.com,2013-09-21 23:50:00,
2013-09-21 20:05:00,73.2,-32.9,29.65,WSW,247,7.8,-999.0,1,-99.99,,,0.00,Acu-Link.com,2013-09-22 00:05:00,
2013-09-21 20:21:00,73.2,-32.9,29.65,SW,225,3.2,-999.0,1,-99.99,,,0.00,Acu-Link.com,2013-09-22 00:21:00,
2013-09-21 20:36:00,72.3,-33.4,29.65,WSW,247,4.2,-999.0,1,-99.99,,,0.00,Acu-Link.com,2013-09-22 00:36:00,
2013-09-21 20:51:00,72.5,-33.3,29.64,ESE,112,3.7,-999.0,1,-99.99,,,0.00,Acu-Link.com,2013-09-22 00:51:00,
2013-09-21 21:06:00,72.5,-33.3,29.63,SE,135,2.2,-999.0,1,-99.99,,,0.00,Acu-Link.com,2013-09-22 01:06:00,
2013-09-21 21:21:00,72.5,-33.3,29.63,SE,135,6.3,-999.0,1,-99.99,,,0.00,Acu-Link.com,2013-09-22 01:21:00,
2013-09-21 21:36:00,72.5,-33.3,29.63,ESE,112,4.2,-999.0,1,-99.99,,,0.00,Acu-Link.com,2013-09-22 01:36:00,
2013-09-21 21:52:00,72.7,-33.2,29.63,South,180,2.7,-999.0,1,-99.99,,,0.00,Acu-Link.com,2013-09-22 01:52:00,
2013-09-21 22:07:00,72.3,-33.4,29.63,SSE,157,4.7,-999.0,1,-99.99,,,0.00,Acu-Link.com,2013-09-22 02:07:00,
2013-09-21 22:22:00,72.0,-33.6,29.63,West,270,0.0,-999.0,1,-99.99,,,0.00,Acu-Link.com,2013-09-22 02:22:00,
2013-09-21 22:37:00,71.6,-33.9,29.62,SW,225,1.1,-999.0,1,-99.99,,,0.01,Acu-Link.com,2013-09-22 02:37:00,
2013-09-21 22:52:00,71.1,-34.2,29.62,South,180,2.2,-999.0,1,-99.99,,,0.02,Acu-Link.com,2013-09-22 02:52:00,
2013-09-21 23:08:00,70.7,-34.4,29.61,SW,225,3.2,-999.0,1,-99.99,,,0.03,Acu-Link.com,2013-09-22 03:08:00,
2013-09-21 23:23:00,70.5,-34.5,29.61,SW,225,2.2,-999.0,1,-99.99,,,0.04,Acu-Link.com,2013-09-22 03:23:00,
2013-09-21 23:38:00,70.5,-34.5,29.61,SSW,202,2.7,-999.0,1,-99.99,,,0.05,Acu-Link.com,2013-09-22 03:38:00,
2013-09-21 23:54:00,71.1,-34.2,29.61,WSW,247,1.7,-999.0,1,-99.99,,,0.06,Acu-Link.com,2013-09-22 03:54:00,